Regional Weather Roundup
Issued by NWS Boston, MA

Current Version | Previous Version | Text Only | Print | Product List | Glossary Off
Versions: 1 2 3 4 5 6 7 8 9 10 11 12 13 14 15 16 17 18 19 20 21 22 23 24 25 26 27 28

000
ASUS41 KBOX 220910
RWRBOX

REGIONAL WEATHER ROUNDUP
NATIONAL WEATHER SERVICE TAUNTON MA
400 AM EST MON JAN 22 2018

NOTE:  "FAIR" INDICATES FEW OR NO CLOUDS BELOW 12,000 FEET WITH NO
SIGNIFICANT WEATHER AND/OR OBSTRUCTIONS TO VISIBILITY.

MAZALL-221000-
EASTERN MASSACHUSETTS

CITY           SKY/WX    TMP DP  RH WIND       PRES   REMARKS
BOSTON         LGT RAIN  35  32  88 CALM      30.20R
BEVERLY        CLOUDY    37  31  78 CALM      30.19R
LAWRENCE       LGT RAIN  35  31  85 CALM      30.21R
BEDFORD        CLOUDY    32  30  92 W3        30.19R
BLUE HILL        N/A     35  29  78 S9        30.16R WCI  28
NORWOOD        CLOUDY    35  32  88 CALM      30.20R
MARSHFIELD     CLOUDY    34  32  93 CALM      30.20R
PLYMOUTH       CLOUDY    37  31  78 CALM      30.20S
TAUNTON        CLOUDY    33  31  92 CALM      30.19S
NEW BEDFORD    CLOUDY    34  33  96 CALM      30.19S
$$

MAZALL-221000-
CAPE COD AND THE ISLANDS

CITY           SKY/WX    TMP DP  RH WIND       PRES   REMARKS
FALMOUTH       CLOUDY    32  30  93 CALM      30.21
HYANNIS        CLOUDY    32  30  92 CALM      30.19S
CHATHAM        CLOUDY    35  32  88 CALM      30.21F
PROVINCETOWN   CLOUDY    38  34  85 MISG      30.21S
NANTUCKET      CLOUDY    35  35 100 CALM      30.21S
MARTHAS VNYRD  CLOUDY   N/A N/A N/A CALM      30.20S HAZE
$$

MAZALL-221000-
CENTRAL AND WESTERN MASSACHUSETTS

CITY           SKY/WX    TMP DP  RH WIND       PRES   REMARKS
WORCESTER      LGT RAIN  35  30  82 SW5       30.15S WCI  31
FITCHBURG      CLOUDY    35  33  92 CALM      30.19R
ORANGE         CLOUDY    31  31 100 CALM      30.18F
SPRINGFIELD    CLOUDY    33  31  94 CALM      30.15F
WESTFIELD      LGT RAIN  33  32  96 N3        30.16F
NORTH ADAMS    CLOUDY    32  31  96 CALM      30.15S FOG
PITTSFIELD     CLOUDY    33  30  88 CALM      30.11S FOG
$$

RIZALL-221000-
RHODE ISLAND

CITY           SKY/WX    TMP DP  RH WIND       PRES   REMARKS
PROVIDENCE     CLOUDY    36  33  89 CALM      30.20R
NEWPORT        CLOUDY    38  36  92 CALM      30.19R
BLOCK ISLAND   LGT RAIN  40  38  93 S5        30.19S
SMITHFIELD     CLOUDY   N/A N/A N/A CALM      30.19R
WESTERLY       LGT RAIN  35  33  92 CALM      30.19S FOG
$$

CTZALL-221000-
CONNECTICUT

CITY           SKY/WX    TMP DP  RH WIND       PRES   REMARKS
BRADLEY INTL   LGT RAIN  34  32  92 N3        30.16F
HARTFORD       MIX PCPN  36  33  89 CALM      30.17F FOG
BRIDGEPORT     LGT RAIN  37  34  89 NE6       30.15F FOG
DANBURY        CLOUDY    37  35  92 NE3       30.15S FOG
GROTON         LGT RAIN  36  34  92 CALM      30.18S FOG
NEW HAVEN      LGT RAIN  38  34  85 CALM      30.16F FOG
CHESTER        CLOUDY    37  34  87 CALM      30.16S FOG
MERIDEN        LGT RAIN  34  33  96 CALM      30.16F FOG
WILLIMANTIC    LGT RAIN  34  30  85 E3        30.18S
OXFORD         LGT RAIN  36  36 100 SE3       30.14F FOG
$$

MEZ002-015-021-024-NHZ003-005-008-011-012-014-VTZ005-008-221000-
NORTHERN NEW ENGLAND

CITY           SKY/WX    TMP DP  RH WIND       PRES   REMARKS
PORTLAND ME    CLOUDY    34  28  79 E13       30.23R WCI  25
BANGOR ME      FLURRIES  22  11  62 N13       30.30R WCI  10
CONCORD NH     CLOUDY    30  27  88 CALM      30.19R
MANCHESTER NH  CLOUDY    31  28  89 CALM      30.18R
NASHUA NH      MIX PCPN  31  30  96 CALM      30.21R
PORTSMOUTH NH  FRZ RAIN  30  27  87 CALM      30.19
JAFFREY NH     MIX PCPN  32  31  96 CALM      30.15S
KEENE NH       MIX PCPN  29  27  92 NE3       30.18S
BURLINGTON VT  CLOUDY    26  20  77 NW10      30.22R WCI  16
MT. WASHINGTON FOG       18  18 100 SW18        N/A  VSB 1/8 WCI   2
$$

NYZ052-076-221000-
EASTERN NEW YORK

CITY           SKY/WX    TMP DP  RH WIND       PRES   REMARKS
ALBANY         DRIZZLE   33  30  88 N3        30.16S FOG
NEW YORK CITY  CLOUDY    38  34  85 NE8       30.13F
$$

ANZALL-221000-
MARINE OBSERVATIONS

STATION/POSITION TIME  TEMP    WIND        PRES    VSBY  WAVE
                       AIR SEA DIR/SP/G                  HT/PER
                 (UTC) (F)     (DEG/KT/KT) (MB)    (MI)  (FT/S)
BOSTON BUOY      0750   39 40  170/ 10/ 10 1021.7          1/ 9
BUZZARDS BAY     0800   39     170/  9/  9 1022.9F
NANTUCKET SOUND  0850   36 36  140/  4/  4 1022.7F         1
MASS BAY-STELLWA 0804   40 39              1021.4S         1
ISLE OF SHOALS   0800   41     170/ 10/ 11 1022.0S
S OF BLOCK IS    0843      41                N/A           2/ 8
$$

......................KEY.........................
  SKY/WX - SKY CONDITION/PRESENT WEATHER
  TMP    - TEMPERATURE IN FAHRENHEIT
  DWPT   - DEWPOINT IN FAHRENHEIT
  RH     - RELATIVE HUMIDITY IN PERCENT
  WIND   - DIRECTION AND SPEED IN MPH
  PRES   - MEAN SEA LEVEL PRESSURE IN INCHES OF HG
  WCI    - WIND CHILL INDEX
  VSB    - VISIBILITY IN MILES
  HX     - HEAT INDEX
  TC     - TEMPERATURE IN CELSIUS
  VRB    - VARIABLE WIND DIRECTION
  N/A    - NOT AVAILABLE




USA.gov is the U.S. government's official web portal to all federal, state and local government web resources and services.